Hourly Data Report for September 05, 2017

All times are specified in Local Standard Time (LST). Add 1 hour to adjust for Daylight Saving Time where and when it is observed.

SAINT JOHN A
NEW BRUNSWICK

45°18'58.000" N
65°53'24.000" W
108.80 m
8104901
71609
YSJ

Download Data

Hourly Data (September 2017)
Hourly Data Report for September 5, 2017
Temp Definition
°C
Dew Point Temp Definition
°C
Rel Hum Definition
%
Wind Dir Definition
10's deg

Wind Spd Definition
km/h
Visibility Definition
km
Stn Press Definition
kPa
Hmdx Definition


Wind Chill Definition


Weather Definition


TIME
00:00 Legend Double Dagger 13.0 12.5 96 21 18 24.1 99.68     LegendNANA
01:00 Legend Double Dagger 13.3 12.8 97 20 14 24.1 99.64     LegendNANA
02:00 Legend Double Dagger 13.4 13.0 97 20 14 9.7 99.62     Fog
03:00 Legend Double Dagger 13.8 13.2 96 20 21 4.8 99.61     Fog
04:00 Legend Double Dagger 13.7 13.2 97 19 25 3.2 99.60     Fog
05:00 Legend Double Dagger 13.5 12.9 96 21 20 3.2 99.56     Fog
06:00 Legend Double Dagger 13.8 12.7 93 21 27 9.7 99.64     Fog
07:00 Legend Double Dagger 14.6 13.8 95 21 30 9.7 99.59     Fog
08:00 Legend Double Dagger 15.1 14.1 93 20 32 9.7 99.58     Fog
09:00 Legend Double Dagger 16.4 14.6 89 21 30 9.7 99.65     Fog
10:00 Legend Double Dagger 17.1 14.9 87 20 36 12.9 99.64     LegendNANA
11:00 Legend Double Dagger 17.2 14.9 86 20 34 16.1 99.68     Cloudy
12:00 Legend Double Dagger 15.4 14.5 94 21 32 4.8 99.72     Fog
13:00 Legend Double Dagger 16.1 15.0 93 20 32 3.2 99.69     Fog
14:00 Legend Double Dagger 16.2 15.3 94 21 31 3.2 99.70     Fog
15:00 Legend Double Dagger 16.0 15.5 97 20 27 1.6 99.75     Fog
16:00 Legend Double Dagger 16.2 15.7 97 20 23 1.6 99.75     Fog
17:00 Legend Double Dagger 15.9 15.5 97 20 22 1.6 99.77     Fog
18:00 Legend Double Dagger 15.9 15.5 97 20 23 1.6 99.78     Fog
19:00 Legend Double Dagger 15.9 15.7 98 21 24 1.2 99.81     Fog
20:00 Legend Double Dagger 16.2 15.9 98 21 30 1.6 99.87     Fog
21:00 Legend Double Dagger 16.2 15.8 97 20 31 2.0 99.92     Fog
22:00 Legend Double Dagger 16.2 15.5 96 20 33 3.2 99.97     Fog
23:00 Legend Double Dagger 16.0 15.2 95 20 23 4.0 99.96     Fog

Notes on Data Quality.

Legend

  • E = Estimated
  • M = Missing
  • NA = Not Available
  • ‡ = Partner data that is not subject to review by the National Climate Archives
Date modified: